When you browse on this site, cookies collect data to enhance your experience and personalize the content and advertising you see.
Visit our Privacy Policy to learn more. By continuing to use the site, you agree to this use of cookies and data.
  • In Spain
  • List of Countries
  • For 7 days
  • Water Temperature
  • Satellite Maps
  • Weather Map
  • Weather Widgets
  • user-avatar
    Login

    Hourly Weather Ibb

    Today, 25 June, Tuesday

    Time Temperature Precipitation Wind Pressure Humidity
    00:00 +22°C° 0 mm 1 mps 594 mmHg 62%
    01:00 +22°C° 0 mm 1 mps 594 mmHg 61%
    02:00 +22°C° 0 mm 1 mps 594 mmHg 59%
    03:00 +21°C° 0 mm 1 mps 593 mmHg 57%
    04:00 +21°C° 0 mm 1 mps 594 mmHg 58%
    05:00 +19°C° 0 mm 0 mps 594 mmHg 58%
    06:00 +19°C° 0 mm 0 mps 594 mmHg 59%
    07:00 +20°C° 0 mm 0 mps 595 mmHg 52%
    08:00 +24°C° 0 mm 1 mps 596 mmHg 44%
    09:00 +25°C° 0 mm 1 mps 596 mmHg 37%
    10:00 +26°C° 0 mm 2 mps 597 mmHg 35%
    11:00 +28°C° 0 mm 3 mps 597 mmHg 32%
    12:00 +29°C° 0 mm 4 mps 598 mmHg 29%
    13:00 +29°C° 0 mm 4 mps 597 mmHg 30%
    14:00 +28°C° 0 mm 3 mps 597 mmHg 32%
    15:00 +28°C° 0 mm 3 mps 596 mmHg 34%
    16:00 +27°C° 0.3 mm 3 mps 596 mmHg 38%
    17:00 +26°C° 0.3 mm 3 mps 596 mmHg 42%
    18:00 +25°C° 0.3 mm 2 mps 595 mmHg 46%
    19:00 +24°C° 0.2 mm 2 mps 595 mmHg 51%
    20:00 +24°C° 0.2 mm 1 mps 595 mmHg 56%
    21:00 +23°C° 0.2 mm 1 mps 595 mmHg 61%
    22:00 +23°C° 0 mm 1 mps 595 mmHg 60%
    23:00 +23°C° 0 mm 1 mps 595 mmHg 60%

    Tomorrow, 26 June, Wednesday

    Time Temperature Precipitation Wind Pressure Humidity
    00:00 +23°C° 0 mm 1 mps 595 mmHg 60%
    01:00 +23°C° 0 mm 1 mps 595 mmHg 60%
    02:00 +23°C° 0 mm 1 mps 594 mmHg 60%
    03:00 +22°C° 0 mm 1 mps 594 mmHg 60%
    04:00 +22°C° 0 mm 1 mps 594 mmHg 60%
    05:00 +22°C° 0 mm 1 mps 594 mmHg 59%
    06:00 +22°C° 0 mm 1 mps 595 mmHg 59%
    07:00 +24°C° 0 mm 1 mps 596 mmHg 49%
    08:00 +26°C° 0 mm 2 mps 596 mmHg 40%
    09:00 +28°C° 0 mm 3 mps 597 mmHg 30%
    10:00 +28°C° 0 mm 3 mps 597 mmHg 29%
    11:00 +29°C° 0 mm 4 mps 597 mmHg 28%
    12:00 +30°C° 0 mm 5 mps 597 mmHg 27%
    13:00 +29°C° 0 mm 4 mps 597 mmHg 30%
    14:00 +29°C° 0 mm 4 mps 596 mmHg 32%
    15:00 +29°C° 0 mm 4 mps 596 mmHg 35%
    16:00 +28°C° 0.2 mm 4 mps 595 mmHg 40%
    17:00 +27°C° 0.2 mm 3 mps 595 mmHg 44%
    18:00 +26°C° 0.2 mm 3 mps 594 mmHg 49%
    19:00 +26°C° 0.1 mm 3 mps 594 mmHg 51%
    20:00 +25°C° 0.1 mm 3 mps 595 mmHg 53%
    21:00 +25°C° 0.1 mm 2 mps 595 mmHg 54%
    22:00 +25°C° 0 mm 2 mps 594 mmHg 54%
    23:00 +24°C° 0 mm 2 mps 594 mmHg 54%

    Day after tomorrow, 27 June, Thursday

    Time Temperature Precipitation Wind Pressure Humidity
    00:00 +24°C° 0 mm 2 mps 594 mmHg 54%
    01:00 +24°C° 0 mm 2 mps 593 mmHg 54%
    02:00 +23°C° 0 mm 2 mps 593 mmHg 55%
    03:00 +23°C° 0 mm 2 mps 592 mmHg 55%
    04:00 +23°C° 0 mm 2 mps 592 mmHg 54%
    05:00 +23°C° 0 mm 2 mps 593 mmHg 53%
    06:00 +23°C° 0 mm 2 mps 593 mmHg 51%
    07:00 +25°C° 0 mm 3 mps 594 mmHg 42%
    08:00 +27°C° 0 mm 3 mps 595 mmHg 34%
    09:00 +29°C° 0 mm 4 mps 596 mmHg 25%
    10:00 +30°C° 0 mm 4 mps 596 mmHg 23%
    11:00 +32°C° 0 mm 5 mps 596 mmHg 22%
    12:00 +33°C° 0 mm 6 mps 597 mmHg 21%
    13:00 +33°C° 0 mm 5 mps 596 mmHg 23%
    14:00 +32°C° 0 mm 5 mps 595 mmHg 26%
    15:00 +32°C° 0 mm 5 mps 595 mmHg 29%
    16:00 +30°C° 0 mm 4 mps 594 mmHg 32%
    17:00 +29°C° 0 mm 3 mps 594 mmHg 35%
    18:00 +28°C° 0 mm 2 mps 594 mmHg 38%
    19:00 +28°C° 0 mm 2 mps 594 mmHg 42%
    20:00 +27°C° 0 mm 1 mps 594 mmHg 45%
    21:00 +26°C° 0 mm 1 mps 594 mmHg 49%
    22:00 +26°C° 0 mm 1 mps 593 mmHg 50%
    23:00 +25°C° 0 mm 1 mps 593 mmHg 52%

    28 June, Friday

    Time Temperature Precipitation Wind Pressure Humidity
    00:00 +23°C° 0 mm 0 mps 593 mmHg 53%
    01:00 +24°C° 0 mm 1 mps 592 mmHg 51%
    02:00 +24°C° 0 mm 1 mps 592 mmHg 49%
    03:00 +24°C° 0 mm 1 mps 591 mmHg 47%
    04:00 +23°C° 0 mm 1 mps 592 mmHg 47%
    05:00 +23°C° 0 mm 1 mps 592 mmHg 47%
    06:00 +23°C° 0 mm 1 mps 592 mmHg 47%
    07:00 +24°C° 0 mm 1 mps 593 mmHg 42%
    08:00 +26°C° 0 mm 2 mps 594 mmHg 37%
    09:00 +28°C° 0 mm 2 mps 595 mmHg 32%
    10:00 +28°C° 0 mm 3 mps 595 mmHg 32%
    11:00 +29°C° 0 mm 4 mps 595 mmHg 32%
    12:00 +30°C° 0 mm 5 mps 595 mmHg 32%
    13:00 +30°C° 0 mm 5 mps 595 mmHg 32%
    14:00 +30°C° 0 mm 4 mps 594 mmHg 32%
    15:00 +30°C° 0 mm 4 mps 594 mmHg 33%
    16:00 +29°C° 0.1 mm 3 mps 594 mmHg 36%
    17:00 +28°C° 0.1 mm 2 mps 593 mmHg 39%
    18:00 +27°C° 0.1 mm 2 mps 593 mmHg 43%
    19:00 +26°C° 0 mm 1 mps 593 mmHg 48%
    20:00 +26°C° 0 mm 1 mps 593 mmHg 52%
    21:00 +23°C° 0 mm 0 mps 594 mmHg 57%
    22:00 +22°C° 0 mm 0 mps 593 mmHg 59%
    23:00 +22°C° 0 mm 0 mps 593 mmHg 62%

    29 June, Saturday

    Time Temperature Precipitation Wind Pressure Humidity
    00:00 +22°C° 0 mm 0 mps 593 mmHg 64%
    01:00 +21°C° 0 mm 0 mps 593 mmHg 66%
    02:00 +21°C° 0 mm 0 mps 592 mmHg 68%
    03:00 +20°C° 0 mm 0 mps 592 mmHg 70%
    04:00 +20°C° 0 mm 0 mps 592 mmHg 71%
    05:00 +20°C° 0 mm 0 mps 592 mmHg 71%
    06:00 +19°C° 0 mm 0 mps 593 mmHg 72%
    07:00 +23°C° 0 mm 1 mps 594 mmHg 63%
    08:00 +25°C° 0 mm 2 mps 595 mmHg 53%
    09:00 +26°C° 0 mm 2 mps 596 mmHg 44%
    10:00 +27°C° 0.3 mm 3 mps 596 mmHg 43%
    11:00 +27°C° 0.3 mm 3 mps 596 mmHg 42%
    12:00 +28°C° 0.3 mm 4 mps 595 mmHg 40%
    13:00 +28°C° 0.4 mm 4 mps 595 mmHg 42%
    14:00 +27°C° 0.4 mm 4 mps 594 mmHg 43%
    15:00 +27°C° 0.4 mm 4 mps 594 mmHg 45%
    16:00 +27°C° 0.1 mm 3 mps 594 mmHg 46%
    17:00 +26°C° 0.1 mm 3 mps 594 mmHg 47%
    18:00 +26°C° 0.1 mm 3 mps 593 mmHg 49%
    19:00 +25°C° 0 mm 2 mps 594 mmHg 51%
    20:00 +25°C° 0 mm 1 mps 594 mmHg 54%
    21:00 +22°C° 0 mm 0 mps 594 mmHg 57%
    22:00 +22°C° 0 mm 0 mps 594 mmHg 57%
    23:00 +22°C° 0 mm 0 mps 594 mmHg 58%

    30 June, Sunday

    Time Temperature Precipitation Wind Pressure Humidity
    00:00 +22°C° 0 mm 0 mps 594 mmHg 58%
    01:00 +21°C° 0 mm 0 mps 593 mmHg 60%
    02:00 +23°C° 0 mm 1 mps 593 mmHg 61%
    03:00 +22°C° 0 mm 1 mps 593 mmHg 62%
    04:00 +22°C° 0 mm 1 mps 593 mmHg 64%
    05:00 +22°C° 0 mm 1 mps 593 mmHg 65%
    06:00 +21°C° 0 mm 1 mps 593 mmHg 67%
    07:00 +23°C° 0 mm 1 mps 594 mmHg 61%
    08:00 +24°C° 0 mm 1 mps 595 mmHg 54%
    09:00 +25°C° 0 mm 2 mps 595 mmHg 48%
    10:00 +27°C° 0.1 mm 2 mps 596 mmHg 45%
    11:00 +28°C° 0.1 mm 3 mps 596 mmHg 42%
    12:00 +29°C° 0.1 mm 3 mps 596 mmHg 38%
    13:00 +28°C° 1 mm 3 mps 595 mmHg 41%
    14:00 +28°C° 1 mm 3 mps 595 mmHg 43%
    15:00 +28°C° 1 mm 3 mps 594 mmHg 45%
    16:00 +27°C° 1.7 mm 3 mps 594 mmHg 50%
    17:00 +26°C° 1.7 mm 3 mps 593 mmHg 54%
    18:00 +24°C° 1.7 mm 3 mps 593 mmHg 59%
    19:00 +24°C° 0.2 mm 2 mps 593 mmHg 60%
    20:00 +24°C° 0.2 mm 2 mps 593 mmHg 61%
    21:00 +24°C° 0.2 mm 1 mps 594 mmHg 62%
    22:00 +24°C° 0 mm 1 mps 594 mmHg 60%
    23:00 +24°C° 0 mm 1 mps 594 mmHg 59%
    Show more